Oakey, Australia

5:49 AM AEST on February 20, 2018 (GMT +1000)
Oakey (Military)

Weather History for YBOK - June, 2014

Change the Weather History Date:

Wednesday, June 18, 2014

  Actual Average Record
Temperature  
Mean Temperature 48 °F -  
Max Temperature 68 °F - - ()
Min Temperature 28 °F - - ()
Degree Days  
Heating Degree Days 17    
Moisture  
Dew Point 39 °F    
Average Humidity 72    
Maximum Humidity 100    
Minimum Humidity 27    
Precipitation  
Precipitation 0.00 in - - ()
Sea Level Pressure  
Sea Level Pressure 30.31 in    
Wind  
Wind Speed 5 mph ()    
Max Wind Speed 15 mph    
Max Gust Speed -    
Visibility 6.2 miles    
Events Fog    
T = Trace of Precipitation, MM = Missing Value Source: Averaged Metar Reports

Daily Weather History Graph

Daily Weather History Graph

Search for Another Location

Airport or City:

Trip Planner

Search our weather history database for the weather conditions in past years. The results will help you decide how hot, cold, wet, or windy it might be!

Date:

Astronomy

Jun. 18, 2014 Rise Set
Actual Time 6:41 AM AEST 5:06 PM AEST
Civil Twilight 6:16 AM AEST 5:32 PM AEST
Nautical Twilight 5:47 AM AEST 6:01 PM AEST
Astronomical Twilight 5:18 AM AEST 6:29 PM AEST
Moon 10:42 PM AEST (6/18) 10:37 AM AEST (6/18)
Length of Visible Light 11h 15m
Length of Day
10h 24m
Waning Gibbous, 69% of the Moon is Illuminated
Jun 18
Waning Gibbous
Jun 20
Last Quarter
Jun 27
New
Jul 5
First Quarter
Jul 12
Full

Hourly Weather History & Observations

Time (AEST) Temp. Windchill Dew Point Humidity Pressure Visibility Wind Dir Wind Speed Gust Speed Precip Events Conditions
12:00 AM 34 °F - 31 °F 86% 30.32 in - NNE 3.5 mph - -  
12:00 AM 33.8 °F 30.8 °F 32.0 °F 93% 30.30 in 6.2 mi North 3.5 mph - N/A   Unknown
1:00 AM 34 °F - 33 °F 94% 30.32 in - East 3.5 mph - -  
1:00 AM 33.8 °F 30.8 °F 33.8 °F 100% 30.30 in 6.2 mi East 3.5 mph - N/A   Unknown
2:00 AM 32.0 °F 26.4 °F 30.2 °F 93% 30.30 in 6.2 mi NNE 5.8 mph - N/A   Unknown
3:00 AM 33 °F - 32 °F 96% 30.29 in - NE 5.8 mph - -  
3:00 AM 33.8 °F 28.6 °F 32.0 °F 93% 30.27 in 6.2 mi NE 5.8 mph - N/A   Unknown
4:00 AM 33 °F - 33 °F 97% 30.28 in - NE 3.5 mph - -  
4:00 AM 33.8 °F 30.8 °F 32.0 °F 93% 30.27 in 6.2 mi NE 3.5 mph - N/A   Unknown
5:00 AM 32.0 °F 26.4 °F 30.2 °F 93% 30.27 in 6.2 mi SE 5.8 mph - N/A   Unknown
6:00 AM 30 °F - 28 °F 91% 30.31 in - NE 5.8 mph - -  
6:00 AM 30.2 °F 24.3 °F 28.4 °F 93% 30.30 in 6.2 mi NNE 5.8 mph - N/A   Unknown
7:00 AM 32 °F - 31 °F 94% 30.34 in - NE 3.5 mph - -  
7:00 AM 32.0 °F 28.7 °F 30.2 °F 93% 30.33 in 6.2 mi NE 3.5 mph - N/A Fog Patches of Fog
8:00 AM 39.2 °F - 39.2 °F 100% 30.33 in - Calm Calm - N/A   Clear
9:00 AM 48 °F - 44 °F 81% 30.37 in - SSW 3.5 mph - -  
9:00 AM 48.2 °F - 44.6 °F 87% 30.36 in - SSW 3.5 mph - N/A   Clear
10:00 AM 57 °F - 47 °F 60% 30.36 in - West 3.5 mph - -  
10:00 AM 57.2 °F - 46.4 °F 67% 30.33 in - West 3.5 mph - N/A   Clear
11:00 AM 66.2 °F - 41.0 °F 40% 30.33 in - NE 15.0 mph - N/A   Clear
12:00 PM 68 °F - 43 °F 28% 30.32 in - ENE 10.4 mph - -  
12:00 PM 68.0 °F - 42.8 °F 40% 30.30 in - ENE 10.4 mph - N/A   Clear
1:00 PM 68 °F - 42 °F 27% 30.30 in - ENE 12.7 mph - -  
1:00 PM 68.0 °F - 42.8 °F 40% 30.27 in 6.2 mi ENE 12.7 mph - N/A   Partly Cloudy
2:00 PM 68.0 °F - 44.6 °F 43% 30.27 in 6.2 mi ESE 12.7 mph - N/A   Partly Cloudy
3:00 PM 68 °F - 44 °F 31% 30.28 in - East 12.7 mph - -  
3:00 PM 68.0 °F - 44.6 °F 43% 30.27 in 6.2 mi ENE 12.7 mph - N/A   Partly Cloudy
4:00 PM 67 °F - 45 °F 34% 30.30 in - ENE 13.8 mph - -  
4:00 PM 66.2 °F - 44.6 °F 46% 30.27 in 6.2 mi ENE 13.8 mph - N/A   Partly Cloudy
5:00 PM 62.6 °F - 46.4 °F 55% 30.30 in 6.2 mi ENE 10.4 mph - N/A   Partly Cloudy
6:00 PM 55 °F - 44 °F 55% 30.32 in - East 5.8 mph - -  
6:00 PM 55.4 °F - 42.8 °F 63% 30.30 in 6.2 mi East 5.8 mph - N/A   Partly Cloudy
7:00 PM 54 °F - 45 °F 64% 30.34 in - ENE 8.1 mph - -  
7:00 PM 53.6 °F - 44.6 °F 72% 30.33 in 6.2 mi ENE 8.1 mph - N/A   Partly Cloudy
8:00 PM 53.6 °F - 46.4 °F 77% 30.33 in 6.2 mi ENE 11.5 mph - N/A   Partly Cloudy
9:00 PM 51 °F - 45 °F 74% 30.37 in - SSE 6.9 mph - -  
9:00 PM 50.0 °F - 44.6 °F 82% 30.36 in 6.2 mi SSE 6.9 mph - N/A   Partly Cloudy
10:00 PM 47 °F - 42 °F 77% 30.36 in - Calm Calm - -  
10:00 PM 46.4 °F - 42.8 °F 87% 30.33 in 6.2 mi Calm Calm - N/A   Partly Cloudy
11:00 PM 46.4 °F - 42.8 °F 87% 30.33 in 6.2 mi Calm Calm - N/A   Unknown